| time (UTC) | temp C | wind direction | speed KPH | gust KPH | rain 1hr cm | rain 24hr cm | rain mn cm | humidity % | barometer mb |
| 20260509023052 | 11 | 241 | 0.0 | 0.0 | 0.00 | 0.36 | 0.13 | 81 | 1008.0 |
| 20260509021553 | 11 | 241 | 0.0 | 0.0 | 0.00 | 0.36 | 0.13 | 81 | 1007.9 |
| 20260509020051 | 11 | 241 | 0.0 | 0.0 | 0.00 | 0.36 | 0.13 | 81 | 1007.9 |
| 20260509014550 | 12 | 241 | 0.0 | 0.0 | 0.00 | 0.46 | 0.13 | 81 | 1007.9 |
| 20260509013101 | 12 | 241 | 0.0 | 0.0 | 0.00 | 0.46 | 0.13 | 82 | 1007.7 |
| 20260509011550 | 12 | 241 | 0.0 | 0.0 | 0.00 | 0.46 | 0.13 | 83 | 1007.7 |
| 20260509010054 | 12 | 241 | 0.0 | 0.0 | 0.00 | 0.46 | 0.13 | 83 | 1007.5 |
| 20260509004609 | 12 | 241 | 0.0 | 0.0 | 0.00 | 0.46 | 0.13 | 84 | 1007.5 |
| 20260509003051 | 13 | 240 | 0.0 | 0.0 | 0.00 | 0.46 | 0.13 | 84 | 1007.2 |
| 20260509001548 | 13 | 240 | 0.0 | 0.0 | 0.00 | 0.46 | 0.13 | 84 | 1007.3 |
| 20260509000049 | 13 | 240 | 0.0 | 1.6 | 0.00 | 0.46 | 0.13 | 84 | 1007.2 |
| 20260508234547 | 14 | 240 | 0.0 | 0.0 | 0.00 | 0.46 | 0.13 | 83 | 1007.3 |
| 20260508233053 | 14 | 240 | 0.0 | 1.6 | 0.00 | 0.46 | 0.13 | 84 | 1007.3 |
| 20260508231545 | 14 | 240 | 0.0 | 1.6 | 0.00 | 0.46 | 0.13 | 83 | 1007.5 |
| 20260508230055 | 14 | 240 | 0.0 | 3.2 | 0.00 | 0.46 | 0.13 | 83 | 1007.7 |
| 20260508224544 | 13 | 250 | 0.0 | 6.4 | 0.00 | 0.46 | 0.13 | 83 | 1007.6 |
| 20260508223044 | 13 | 267 | 0.0 | 4.8 | 0.00 | 0.46 | 0.13 | 83 | 1007.6 |
| 20260508221544 | 13 | 250 | 0.0 | 1.6 | 0.00 | 0.46 | 0.13 | 83 | 1007.6 |
| 20260508220050 | 14 | 250 | 0.0 | 4.8 | 0.00 | 0.46 | 0.13 | 83 | 1007.6 |
| 20260508214547 | 14 | 246 | 0.0 | 4.8 | 0.00 | 0.46 | 0.13 | 82 | 1007.7 |
| 20260508213041 | 15 | 254 | 0.0 | 3.2 | 0.00 | 0.46 | 0.13 | 81 | 1007.7 |
| 20260508211539 | 15 | 270 | 0.0 | 1.6 | 0.00 | 0.46 | 0.13 | 81 | 1007.6 |
| 20260508210039 | 15 | 271 | 0.0 | 1.6 | 0.00 | 0.46 | 0.13 | 82 | 1007.9 |
| 20260508204534 | 15 | 271 | 0.0 | 14.5 | 0.00 | 0.46 | 0.13 | 82 | 1008.1 |
| 20260508203031 | 15 | 166 | 0.0 | 3.2 | 0.00 | 0.46 | 0.13 | 81 | 1008.2 |
| 20260508201528 | 14 | 166 | 0.0 | 0.0 | 0.00 | 0.46 | 0.13 | 82 | 1008.5 |
| 20260508200036 | 13 | 165 | 0.0 | 0.0 | 0.00 | 0.46 | 0.13 | 83 | 1008.6 |
| 20260508194522 | 13 | 163 | 0.0 | 0.0 | 0.00 | 0.46 | 0.13 | 83 | 1008.9 |
| 20260508193019 | 13 | 163 | 0.0 | 0.0 | 0.00 | 0.46 | 0.13 | 83 | 1009.1 |
| 20260508191518 | 12 | 163 | 0.0 | 0.0 | 0.00 | 0.46 | 0.13 | 83 | 1009.6 |
| 20260508190015 | 12 | 163 | 0.0 | 0.0 | 0.00 | 0.46 | 0.13 | 83 | 1009.6 |
| 20260508184522 | 12 | 163 | 0.0 | 0.0 | 0.00 | 0.46 | 0.13 | 82 | 1010.0 |
| 20260508183011 | 12 | 163 | 0.0 | 0.0 | 0.00 | 0.46 | 0.13 | 82 | 1010.0 |
| 20260508181512 | 12 | 163 | 0.0 | 0.0 | 0.00 | 0.46 | 0.13 | 80 | 1010.1 |
| 20260508180005 | 11 | 192 | 0.0 | 0.0 | 0.00 | 0.46 | 0.13 | 80 | 1010.3 |
| 20260508174503 | 11 | 271 | 0.0 | 0.0 | 0.00 | 0.46 | 0.13 | 79 | 1010.5 |
| 20260508173100 | 11 | 271 | 0.0 | 1.6 | 0.03 | 0.46 | 0.13 | 78 | 1010.9 |
| 20260508171558 | 11 | 271 | 0.0 | 0.0 | 0.03 | 0.46 | 0.13 | 78 | 1010.9 |
| 20260508170059 | 11 | 271 | 0.0 | 0.0 | 0.03 | 0.46 | 0.13 | 78 | 1011.1 |
| 20260508164602 | 11 | 271 | 0.0 | 0.0 | 0.03 | 0.46 | 0.13 | 78 | 1011.4 |
| 20260508163059 | 11 | 271 | 0.0 | 0.0 | 0.00 | 0.43 | 0.10 | 78 | 1011.7 |
| 20260508161552 | 11 | 271 | 0.0 | 0.0 | 0.00 | 0.43 | 0.10 | 78 | 1011.8 |
| 20260508160049 | 11 | 271 | 0.0 | 0.0 | 0.00 | 0.43 | 0.10 | 77 | 1011.7 |
| 20260508154546 | 11 | 271 | 0.0 | 0.0 | 0.00 | 0.43 | 0.10 | 76 | 1011.5 |
| 20260508153044 | 11 | 271 | 0.0 | 0.0 | 0.03 | 0.43 | 0.10 | 75 | 1011.7 |
| 20260508151549 | 11 | 271 | 0.0 | 1.6 | 0.05 | 0.43 | 0.10 | 76 | 1011.8 |
| 20260508150042 | 10 | 271 | 0.0 | 0.0 | 0.05 | 0.43 | 0.10 | 77 | 1011.9 |
| 20260508144546 | 9 | 271 | 0.0 | 0.0 | 0.08 | 0.43 | 0.10 | 77 | 1012.0 |
| 20260508143036 | 9 | 271 | 0.0 | 0.0 | 0.05 | 0.41 | 0.08 | 77 | 1012.4 |
| 20260508141539 | 9 | 271 | 0.0 | 0.0 | 0.03 | 0.38 | 0.05 | 77 | 1012.5 |
| 20260508140042 | 9 | 271 | 0.0 | 0.0 | 0.03 | 0.38 | 0.05 | 77 | 1012.6 |
| 20260508134539 | 9 | 271 | 0.0 | 0.0 | 0.00 | 0.36 | 0.03 | 77 | 1012.3 |
| 20260508133051 | 9 | 271 | 0.0 | 0.0 | 0.00 | 0.36 | 0.03 | 77 | 1012.4 |
| 20260508131531 | 9 | 271 | 0.0 | 3.2 | 0.00 | 0.36 | 0.03 | 77 | 1012.3 |
| 20260508130030 | 9 | 243 | 0.0 | 0.0 | 0.00 | 0.36 | 0.03 | 77 | 1012.0 |
| 20260508124530 | 8 | 243 | 0.0 | 3.2 | 0.00 | 0.36 | 0.03 | 78 | 1012.2 |
| 20260508123025 | 8 | 243 | 0.0 | 0.0 | 0.00 | 0.36 | 0.03 | 78 | 1012.2 |
| 20260508121529 | 8 | 241 | 0.0 | 0.0 | 0.00 | 0.36 | 0.03 | 78 | 1012.1 |
| 20260508120021 | 7 | 241 | 0.0 | 1.6 | 0.00 | 0.36 | 0.03 | 79 | 1012.0 |
| 20260508114518 | 7 | 241 | 0.0 | 0.0 | 0.00 | 0.36 | 0.03 | 79 | 1012.0 |
| 20260508113016 | 7 | 241 | 0.0 | 0.0 | 0.00 | 0.36 | 0.03 | 79 | 1011.8 |
| 20260508111516 | 6 | 229 | 0.0 | 0.0 | 0.00 | 0.36 | 0.03 | 79 | 1011.7 |
| 20260508110032 | 6 | 229 | 0.0 | 0.0 | 0.00 | 0.36 | 0.03 | 79 | 1011.8 |
| 20260508104514 | 6 | 229 | 0.0 | 0.0 | 0.00 | 0.36 | 0.03 | 79 | 1011.7 |
| 20260508103013 | 7 | 229 | 0.0 | 0.0 | 0.00 | 0.36 | 0.03 | 79 | 1011.5 |
| 20260508101515 | 7 | 229 | 0.0 | 0.0 | 0.00 | 0.36 | 0.03 | 79 | 1011.2 |
| 20260508100017 | 7 | 229 | 0.0 | 0.0 | 0.00 | 0.36 | 0.03 | 79 | 1011.3 |
| 20260508094510 | 7 | 229 | 0.0 | 1.6 | 0.00 | 0.36 | 0.03 | 79 | 1011.4 |
| 20260508093009 | 7 | 228 | 0.0 | 3.2 | 0.00 | 0.36 | 0.03 | 79 | 1011.5 |
| 20260508091508 | 7 | 228 | 0.0 | 4.8 | 0.00 | 0.36 | 0.03 | 79 | 1011.5 |
| 20260508090014 | 6 | 203 | 0.0 | 3.2 | 0.00 | 0.36 | 0.03 | 80 | 1011.5 |
| 20260508084505 | 6 | 88 | 0.0 | 1.6 | 0.00 | 0.36 | 0.03 | 80 | 1011.5 |
| 20260508083007 | 6 | 83 | 0.0 | 1.6 | 0.00 | 0.36 | 0.03 | 80 | 1011.5 |
| 20260508081505 | 6 | 81 | 0.0 | 1.6 | 0.00 | 0.36 | 0.03 | 80 | 1011.6 |
| 20260508080003 | 6 | 81 | 0.0 | 0.0 | 0.03 | 0.36 | 0.03 | 81 | 1011.7 |
| 20260508074505 | 6 | 81 | 0.0 | 0.0 | 0.03 | 0.36 | 0.03 | 81 | 1011.5 |
| 20260508073107 | 6 | 81 | 0.0 | 0.0 | 0.03 | 0.36 | 0.03 | 81 | 1011.4 |
| 20260508071605 | 6 | 81 | 0.0 | 0.0 | 0.03 | 0.36 | 0.03 | 81 | 1011.5 |
| 20260508070058 | 6 | 81 | 0.0 | 0.0 | 0.00 | 0.33 | 0.00 | 81 | 1011.5 |
| 20260508064555 | 6 | 81 | 0.0 | 0.0 | 0.00 | 0.33 | 0.00 | 81 | 1011.6 |
| 20260508063054 | 6 | 81 | 0.0 | 0.0 | 0.00 | 0.33 | 0.00 | 81 | 1011.8 |
| 20260508061553 | 6 | 81 | 0.0 | 0.0 | 0.00 | 0.33 | 0.00 | 81 | 1011.9 |
| 20260508060051 | 6 | 81 | 0.0 | 0.0 | 0.00 | 0.33 | 0.00 | 81 | 1012.0 |
| 20260508054549 | 6 | 81 | 0.0 | 0.0 | 0.00 | 0.33 | 0.00 | 81 | 1012.1 |
| 20260508053112 | 6 | 81 | 0.0 | 0.0 | 0.00 | 0.33 | 0.00 | 81 | 1012.1 |
| 20260508051546 | 6 | 81 | 0.0 | 0.0 | 0.00 | 0.33 | 0.00 | 81 | 1012.2 |
| 20260508050048 | 7 | 81 | 0.0 | 0.0 | 0.00 | 0.33 | 0.00 | 82 | 1012.2 |
| 20260508044544 | 7 | 81 | 0.0 | 0.0 | 0.00 | 0.33 | 0.00 | 82 | 1012.2 |
| 20260508043042 | 7 | 80 | 0.0 | 0.0 | 0.00 | 0.33 | 0.00 | 82 | 1012.1 |
| 20260508041607 | 7 | 80 | 0.0 | 0.0 | 0.00 | 0.33 | 0.00 | 82 | 1012.1 |
| 20260508040053 | 7 | 80 | 0.0 | 0.0 | 0.00 | 0.33 | 0.00 | 83 | 1012.1 |
| 20260508034539 | 7 | 80 | 0.0 | 0.0 | 0.00 | 0.33 | 0.33 | 83 | 1012.1 |
| 20260508033038 | 7 | 80 | 0.0 | 0.0 | 0.00 | 0.33 | 0.33 | 83 | 1012.2 |
| 20260508031539 | 7 | 80 | 0.0 | 0.0 | 0.10 | 0.33 | 0.33 | 83 | 1012.4 |
| 20260508030038 | 7 | 80 | 0.0 | 0.0 | 0.20 | 0.33 | 0.33 | 84 | 1012.4 |
| 20260508024541 | 8 | 80 | 0.0 | 0.0 | 0.33 | 0.33 | 0.33 | 84 | 1012.3 |